Location: Riverside Cemetery
(38.3047°N, 99.7773°W)
Time: 09:46:25
(UTC+00:00)

SKYMED 2 - Pass Details

Date: 19 September 2020
Orbit: 621 x 623 km, 97.9° (Epoch: 25 October)

Event Time Altitude Azimuth Distance (km) Brightness Sun altitude
Rises 11:43:59 0° 161° (SSE) 2,889 7.1 -8.8°
Reaches altitude 10° 11:46:10 10° 159° (SSE) 1,987 6.3 -8.4°
Maximum altitude 11:50:28 70° 76° (ENE) 664 4.0 -7.5°
Drops below altitude 10° 11:54:48 10° 353° (N) 2,001 6.2 -6.7°
Sets 11:57:00 0° 351° (N) 2,912 7.0 -6.3°
